Location: Newark
(41.0400°S, 62.7845°W)
Time: 00:20:06
(UTC+00:00)

CUTE 1.7 + AOD 2 - Pass Details

Date: 07 February 2022
Orbit: 591 x 608 km, 97.7° (Epoch: 16 May)

Event Time Altitude Azimuth Distance (km) Brightness Sun altitude
Exits shadow 06:12:09 - 70° (ENE) 2,254 ? -28.5°
Reaches altitude 10° 06:13:13 10° 80° (E) 1,967 ? -28.4°
Maximum altitude 06:15:41 15° 115° (ESE) 1,652 ? -28.1°
Drops below altitude 10° 06:18:10 10° 151° (SSE) 1,975 ? -27.9°
Sets 06:21:08 0° 173° (S) 2,884 ? -27.6°
